Location: St. Louis
(38.6270°N, 90.1994°W)
Time: 13:28:03
(UTC-06:00)

Transit 4A - Pass Details

Date: 09 December 2021
Orbit: 864 x 980 km, 66.8° (Epoch: 16 January)

Event Time Altitude Azimuth Distance (km) Brightness Sun altitude
Rises 20:02:00 0° 273° (W) 3,486 11.8 -38.7°
Reaches altitude 10° 20:06:52 10° 309° (NW) 2,581 10.7 -39.7°
Maximum altitude 20:08:24 11° 324° (NW) 2,524 10.5 -40.0°
Enters shadow 20:09:19 11° 333° (NNW) 2,555 10.4 -40.2°
Drops below altitude 10° 20:09:57 10° 339° (NNW) 2,604 - -40.3°
Sets 20:14:59 0° 15° (NNE) 3,586 - -41.3°
